Volver al catálogo

QIANFAN-127

ActivoComunicacionesPO
NORAD 69073·PAYLOAD·🇨🇳 China

Lanzado May 12, 2026 desde Taiyuan Satellite Launch Center

Loading…

Próximos Pases (próximas 24 horas)

TLE

ActualizadoSource: Space-Track

Época: Sep 14, 2026, 21:41 UTC

1 69073U 26104A   26257.90368790  .00000041  00000-0  45638-4 0  9997
2 69073  88.9929 332.3240 0002533 105.3238 254.8193 13.50993566 17270

Sigue QIANFAN-127 en tiempo real con AllMySat

Download on the App Store